NIMBUS 2 DEB, 28617

Orbit data source: Space-Track

NIMBUS 2 DEB, 28617 is space debris in SSO originally from a launch on Sun, 15 May 1966 UTC launched from the Air Force Western Test Range (AFWTR). Debris objects in space refer to the collection of defunct objects orbiting the Earth. Examples of debris include non-operational satellites, rocket bodies, and fragments generated from explosions, collisions, or faulty payload assembly.

Loading next visibility...
Identifier
28617, 1966-040AG
Orbit
SSO
Country
Flag of USUS
Related business
Manufacturer
Unknown
Mission
Spacecraft
Bus & Motor
Unknown
Mass
Unknown
Launch date (UTC)
1966-05-15 (60 years ago)
Launch vehicle
Unknown
Launch site
Air Force Western Test Range (AFWTR)
Object type
Payload
Rocket body
Debris
Shape & HBR
Unknown shape, 0.1 m
Radar Cross Section
Small (<0.1 m²)

Expand to show TLE details & history
Last TLE update: 2 weeks ago

TLE from 2 weeks ago
0 NIMBUS 2 DEB
1 28617U 66040AG  26160.41757921  .00003128  00000-0  29556-2 0  9994
2 28617 100.4790  38.9473 0051926  67.1844 112.6060 13.81482467193973
Epoch: 2026-06-09T10:01Z
TLE epoch observation values (Epoch: 2026-06-09T10:01:18.843Z)
Latitude
-0.44818°
Longitude
170.74594°
Altitude
976.308 km
Speed
7.356 km/s
True Right ascension
14h 35m 27s
True Declination
0° 26' 44"
Sunlit
Object was in full shadow at epoch
Visualization orbit readout
Latitude
Unknown
Longitude
Unknown
Altitude
Unknown
Speed
Unknown
Apparent Right ascension
Unknown
Apparent Declination
Unknown
Sunlit
N/A
Visualization observer readout
Local Sidereal Time
08:39:07
Azimuth
Unknown
Elevation
Unknown
Doppler factor
Unknown
Orbital elements
Apogee altitude
994.018 km
Perigee altitude
917.852 km
Semi-major axis
7,334.072 km
Eccentricity
0.00519
Inclination
100.479°
RAAN
38.9473°
Arg. of periapsis
67.1844°
True anomaly
113.15394°
Mean anomaly
112.606°
Eccentric anomaly
112.88011°
Mean motion
3.45562 °/min
Orbital period
104.18 mins
BSTAR
0.0029556
Loading maneuver chart data...
Computing Atmospheric mass density...
Loading historical data...
Loading historical data...
Loading historical data...
Loading historical data...
Loading historical data...
Loading historical data...
Loading historical data...

Documentation

Showing up to 5 results
|